Izaña en Tenerife

latitud = 28° 18' 32''N | longitud = 016° 29' 58''W
2371 metros sobre el nivel del mar | datos mensuales

Fecha, hora, temperatura, viento dirección y velocidad, humedad y presión.

  • 24-09-2017 23:00:00 | 12.70°C | Sur |46.00 km/h | 57.00% | 776.00 hPa
  • 24-09-2017 22:00:00 | 11.60°C | Sur |41.00 km/h | 69.00% | 775.50 hPa
  • 24-09-2017 21:00:00 | 11.20°C | Sur |46.00 km/h | 80.00% | 775.20 hPa
  • 24-09-2017 20:00:00 | 12.10°C | Sur |52.00 km/h | 80.00% | 774.70 hPa
  • 24-09-2017 19:00:00 | 14.00°C | Sur |57.00 km/h | 62.00% | 774.40 hPa
  • 24-09-2017 18:00:00 | 15.40°C | Sur |51.00 km/h | 54.00% | 774.40 hPa
  • 24-09-2017 17:00:00 | 15.90°C | Sur |46.00 km/h | 55.00% | 774.00 hPa
  • 24-09-2017 16:00:00 | 16.20°C | Sur |58.00 km/h | 50.00% | 773.80 hPa
  • 24-09-2017 15:00:00 | 16.40°C | Sur |61.00 km/h | 43.00% | 773.90 hPa
  • 24-09-2017 14:00:00 | 16.90°C | Sur |57.00 km/h | 42.00% | 773.90 hPa
  • 24-09-2017 13:00:00 | 16.70°C | Sur |50.00 km/h | 42.00% | 774.10 hPa
  • 24-09-2017 12:00:00 | 17.60°C | Sur |51.00 km/h | 32.00% | 773.90 hPa
  • 24-09-2017 11:00:00 | 17.70°C | Sur |57.00 km/h | 23.00% | 773.60 hPa
  • 24-09-2017 10:00:00 | 15.30°C | Sur |53.00 km/h | 13.00% | 772.90 hPa
  • 24-09-2017 09:00:00 | 13.70°C | Sur |49.00 km/h | 12.00% | 772.30 hPa
  • 24-09-2017 08:00:00 | 12.80°C | Sur |49.00 km/h | 11.00% | 771.90 hPa
  • 24-09-2017 07:00:00 | 12.50°C | Sur |51.00 km/h | 13.00% | 771.40 hPa
  • 24-09-2017 06:00:00 | 12.00°C | Sur |53.00 km/h | 12.00% | 771.00 hPa
  • 24-09-2017 05:00:00 | 11.90°C | Sur |50.00 km/h | 11.00% | 770.80 hPa
  • 24-09-2017 04:00:00 | 11.80°C | Sur |50.00 km/h | 19.00% | 771.00 hPa
  • 24-09-2017 03:00:00 | 11.40°C | Sudeste |44.00 km/h | 35.00% | 771.00 hPa
  • 24-09-2017 02:00:00 | 11.10°C | Sudeste |41.00 km/h | 64.00% | 771.20 hPa
  • 24-09-2017 01:00:00 | 11.30°C | Sudeste |42.00 km/h | 49.00% | 771.40 hPa
  • 24-09-2017 00:00:00 | 10.80°C | Sudeste |42.00 km/h | 71.00% | 771.40 hPa